GSAT0221 (GALILEO 25)

Last updated on Oct. 31, 2020, 5:53 a.m. UTC

1 43564U 18060A   20304.67174366 -.00000088  00000-0  00000+0 0  9992
2 43564  56.8920  37.3516 0004563 251.4426 108.5204  1.70476426 14137
UTC
Height (km)
Latitude
Longitude
Inclination
Orbital Period
UTC large
Height (km)
Speed (km/s)
/
Latitude / Longitude
Inclination (degrees)
Orbital Period (minutes)
Azimuth
Elevation
Range (km)
Doppler Factor
iOS Compass Heading
iOS Angle

Next 30 passes for location: Hong Kong

Rise time Rise Azimuth (degrees) Set time Set Azimuth (degrees) Duration Max altitude (degrees)

No matching passes for this satellites